"2010-06-02 00:00:00",164620,4.445,31.2,2.748,0.535,19.11,108.4772,20.98,21.89,17.3,0,110.7,13.3,21.81,353.2
"2010-06-02 00:00:30",164621,4.279,32.24,1.977,0.365,19.12,108.4786,20.99,21.89,16.96,0,110.7,13.3,21.81,354.2
"2010-06-02 00:01:00",164622,3.757,33.25,1.407,0.273,19.14,108.4949,21.03,21.91,16.78,0,110.8,13.3,21.85,355.2
"2010-06-02 00:01:30",164623,4.703,45.7,3.742,0.24,18.99,108.5101,21.07,21.92,17.75,0,110.7,13.3,21.89,7.7
"2010-06-02 00:02:00",164624,4.069,42.3,1.84,0.297,18.99,108.5078,21.06,21.92,17.98,0,110.8,13.3,21.89,4.3
"2010-06-02 00:02:30",164625,4.642,46.36,4.868,0.305,18.99,108.507,21.06,21.93,17.82,0,110.8,13.3,21.89,8.4
"2010-06-02 00:03:00",164626,4.122,53.22,3.989,0.282,18.98,108.5084,21.06,21.93,17.77,0,110.8,13.3,21.89,15.2
"2010-06-02 00:03:30",164627,4.238,56.09,3.05,0.223,18.97,108.5104,21.07,21.92,17.79,0,110.8,13.3,21.89,18.1
"2010-06-02 00:04:00",164628,4.192,55.06,3.243,0.248,18.97,108.5106,21.07,21.94,17.58,0,110.8,13.3,21.90,17.1
"2010-06-02 00:04:30",164629,5.051,61.19,3.476,0.183,18.9,108.5106,21.07,21.95,18.14,0,110.8,13.29,21.90,23.2
"2010-06-02 00:05:00",164630,4.698,62.15,2.251,0.161,18.97,108.5106,21.07,21.95,17.72,0,110.8,13.3,21.90,24.2
"2010-06-02 00:05:30",164631,4.257,65.29,2.947,0.15,18.98,108.5106,21.07,21.95,17.76,0,110.8,13.3,21.90,27.3
"2010-06-02 00:06:00",164632,4.913,69.98,2.576,0.322,18.93,108.5106,21.07,21.95,18.09,0,110.8,13.3,21.90,32.0
"2010-06-02 00:06:30",164633,5.965,71.86,3.292,0.524,18.95,108.5106,21.07,21.96,18.95,0,110.8,13.3,21.90,33.9
"2010-06-02 00:07:00",164634,5.812,74.02,6.16,0.285,19.01,108.5106,21.07,21.94,19.17,0,110.8,13.3,21.90,36.0
"2010-06-02 00:07:30",164635,5.166,76.17,1.771,0.261,18.95,108.5075,21.06,21.95,19.55,0,110.8,13.3,21.89,38.2
"2010-06-02 00:08:00",164636,5.391,70.97,1.748,0.23,18.97,108.4847,21,21.94,19.43,0,110.8,13.3,21.83,33.0
"2010-06-02 00:08:30",164637,6.109,69.72,3.239,0.381,18.94,108.4769,20.98,21.93,20.05,0,110.8,13.3,21.81,31.7
"2010-06-02 00:09:00",164638,6.229,67.84,1.119,0.127,18.94,108.4769,20.98,21.92,20.63,0,110.8,13.3,21.81,29.8
"2010-06-02 00:09:30",164639,6.292,70.62,1.588,0.182,18.92,108.476,20.98,21.9,20.69,0,110.8,13.3,21.81,32.6
"2010-06-02 00:10:00",164640,6.135,67.85,1.993,0.331,18.96,108.4603,20.94,21.88,20.81,0,110.8,13.3,21.77,29.8
"2010-06-02 00:10:30",164641,5.604,68.41,2.287,0.157,18.93,108.4434,20.9,21.86,21.06,0,110.8,13.29,21.72,30.4
"2010-06-02 00:11:00",164642,5.715,66.05,2.09,0.237,18.99,108.444,20.9,21.86,20.94,0,110.8,13.29,21.72,28.1
"2010-06-02 00:11:30",164643,5.783,67.21,3.866,0.241,19.01,108.4434,20.9,21.83,20.79,0,110.8,13.3,21.72,29.2
"2010-06-02 00:12:00",164644,6.173,69,2.204,0.244,19.01,108.4449,20.9,21.82,20.33,0,110.8,13.29,21.73,31.0
"2010-06-02 00:12:30",164645,5.745,69.95,2.553,0.212,19.01,108.4437,20.9,21.82,20.23,0,110.8,13.29,21.72,31.9
"2010-06-02 00:13:00",164646,5.363,72.6,2.85,0.341,19.01,108.4449,20.9,21.83,20.58,0,110.8,13.29,21.73,34.6
"2010-06-02 00:13:30",164647,5.209,64.47,1.034,0.255,19.04,108.4431,20.9,21.81,20.46,0,110.8,13.29,21.72,26.5
"2010-06-02 00:14:00",164648,5.836,64.28,1.503,0.122,19.06,108.4426,20.9,21.81,20.22,0,110.8,13.29,21.72,26.3
"2010-06-02 00:14:30",164649,5.87,65.55,1.871,0.121,19.05,108.4411,20.89,21.81,20.35,0,110.8,13.28,21.72,27.6
"2010-06-02 00:15:00",164650,6.22,59.73,2.552,0.224,19.13,108.4428,20.9,21.8,19.89,0,110.8,13.29,21.72,21.7
"2010-06-02 00:15:30",164651,5.831,61.83,3.648,0.346,19.11,108.4428,20.9,21.8,20.45,0,110.8,13.29,21.72,23.8
"2010-06-02 00:16:00",164652,5.559,59.38,4.352,0.126,19.13,108.4431,20.9,21.81,19.39,0,110.8,13.29,21.72,21.4
"2010-06-02 00:16:30",164653,5.417,64.6,3.072,0.489,19.14,108.4434,20.9,21.8,19.65,0,110.8,13.3,21.72,26.6
"2010-06-02 00:17:00",164654,5.058,72.24,1.903,0.161,19.11,108.4441,20.9,21.8,21.23,0,110.8,13.3,21.72,34.2
"2010-06-02 00:17:30",164655,5.016,73.69,3.855,0.169,19.1,108.4281,20.86,21.78,21.76,0,110.8,13.3,21.68,35.7
"2010-06-02 00:18:00",164656,4.841,79.32,3.259,0.136,19.13,108.414,20.82,21.77,21.57,0,110.8,13.3,21.65,41.3
"2010-06-02 00:18:30",164657,5.125,84.6,2.562,0.135,19.16,108.4105,20.81,21.77,21.54,0,110.8,13.3,21.64,46.6
"2010-06-02 00:19:00",164658,5.111,79.85,1.269,0.167,19.16,108.4127,20.82,21.75,21.28,0,110.8,13.31,21.64,41.8
"2010-06-02 00:19:30",164659,5.638,76.59,2.33,0.256,19.15,108.4173,20.83,21.75,21.68,0,110.8,13.31,21.66,38.6
"2010-06-02 00:20:00",164660,6.051,75.99,4.186,0.248,19.18,108.4206,20.84,21.73,21.74,0,110.8,13.31,21.66,38.0
"2010-06-02 00:20:30",164661,5.874,69.49,2.891,0.596,19.16,108.4173,20.83,21.72,22.27,0,110.8,13.31,21.66,31.5
"2010-06-02 00:21:00",164662,5.91,61.2,4.173,0.544,19.32,108.4104,20.81,21.72,21.27,0,110.8,13.3,21.64,23.2
"2010-06-02 00:21:30",164663,5.33,62.38,6.293,0.617,19.42,108.4212,20.84,21.73,20.25,0,110.8,13.3,21.67,24.4
"2010-06-02 00:22:00",164664,5.942,62.61,6.064,0.637,19.27,108.4212,20.84,21.73,21.06,0,110.8,13.3,21.67,24.6
"2010-06-02 00:22:30",164665,5.333,68.46,3.799,0.221,19.17,108.4221,20.84,21.75,21.84,0,110.8,13.3,21.67,30.5
"2010-06-02 00:23:00",164666,4.648,67.83,3.742,0.757,19.18,108.4282,20.86,21.75,21.94,0,110.8,13.3,21.68,29.8
"2010-06-02 00:23:30",164667,4.577,42.92,6.453,0.717,19.32,108.4304,20.86,21.73,20.72,0,110.8,13.3,21.69,4.9
"2010-06-02 00:24:00",164668,3.641,49.92,8.36,0.748,19.33,108.4267,20.85,21.75,20.74,0,110.8,13.3,21.68,11.9
"2010-06-02 00:24:30",164669,4.584,75.63,4.036,0.411,19.23,108.4264,20.85,21.75,21.86,0,110.8,13.3,21.68,37.6
"2010-06-02 00:25:00",164670,4.775,78.48,3.772,0.295,19.16,108.4237,20.85,21.74,23.17,0,110.8,13.3,21.67,40.5
"2010-06-02 00:25:30",164671,5.045,74.05,4.587,0.208,19.16,108.4157,20.83,21.73,23.05,0,110.8,13.3,21.65,36.1
"2010-06-02 00:26:00",164672,5.155,65.27,2.335,0.253,19.23,108.3987,20.78,21.7,22.46,0,110.8,13.3,21.61,27.3
"2010-06-02 00:26:30",164673,5.927,64.08,2.884,0.587,19.32,108.4009,20.79,21.7,22.01,0,110.8,13.3,21.61,26.1
"2010-06-02 00:27:00",164674,5.304,74.37,9.53,0.809,19.61,108.404,20.8,21.7,19.96,0,110.8,13.3,21.62,36.4
"2010-06-02 00:27:30",164675,6.071,74.7,2.709,0.421,19.24,108.4229,20.84,21.71,21.51,0,110.8,13.3,21.67,36.7
"2010-06-02 00:28:00",164676,6.074,77.52,3.387,0.191,19.27,108.4058,20.8,21.71,21.37,0,110.8,13.3,21.63,39.5
"2010-06-02 00:28:30",164677,6.14,82,2.049,0.621,19.32,108.399,20.78,21.69,21.85,0,110.8,13.3,21.61,44.0
"2010-06-02 00:29:00",164678,6.869,79.93,1.658,0.387,19.33,108.3997,20.79,21.7,22.32,0,110.8,13.3,21.61,41.9
"2010-06-02 00:29:30",164679,6.212,76.4,1.18,0.15,19.33,108.4009,20.79,21.69,23.6,0,110.8,13.3,21.61,38.4
"2010-06-02 00:30:00",164680,6.423,79.81,1.529,0.293,19.34,108.3975,20.78,21.67,23.98,0,110.8,13.3,21.60,41.8
"2010-06-02 00:30:30",164681,6.756,82.5,4.035,0.173,19.35,108.3742,20.72,21.66,24.8,0,110.7,13.3,21.54,44.5
"2010-06-02 00:31:00",164682,7.706,85.1,1.958,0.563,19.39,108.3717,20.71,21.63,24.52,0,110.7,13.31,21.54,47.1
"2010-06-02 00:31:30",164683,8.18,81.6,7.548,0.596,19.5,108.3714,20.71,21.63,22.88,0,110.7,13.31,21.54,43.6
"2010-06-02 00:32:00",164684,7.233,81,2.569,0.303,19.39,108.3756,20.72,21.62,24.24,0,110.7,13.31,21.55,43.0
"2010-06-02 00:32:30",164685,6.989,84.1,2.338,0.211,19.25,108.3726,20.72,21.61,26,0,110.7,13.31,21.54,46.1
"2010-06-02 00:33:00",164686,7.422,87.1,2.667,0.268,19.2,108.3474,20.65,21.58,26.78,0,110.7,13.32,21.48,49.1
"2010-06-02 00:33:30",164687,7.322,91.6,3.497,0.324,19.09,108.3381,20.63,21.56,28.11,0,110.7,13.32,21.45,53.6
"2010-06-02 00:34:00",164688,7.204,94.3,1.635,0.354,18.99,108.3052,20.54,21.52,29.12,0,110.7,13.32,21.37,56.3
"2010-06-02 00:34:30",164689,6.849,99.4,1.766,0.21,19.12,108.277,20.47,21.47,28.24,0,110.7,13.31,21.29,61.4
"2010-06-02 00:35:00",164690,7.254,102.3,2.033,0.236,19.13,108.2497,20.4,21.41,27.35,0,110.7,13.31,21.22,64.3
"2010-06-02 00:35:30",164691,6.413,100.4,5.643,0.705,19.58,108.2432,20.38,21.37,23.91,0,110.7,13.31,21.21,62.4
"2010-06-02 00:36:00",164692,5.273,105.1,10.21,0.548,19.58,108.2618,20.43,21.36,22.38,0,110.7,13.31,21.25,67.1
"2010-06-02 00:36:30",164693,6.418,99.3,2.705,0.526,19.32,108.277,20.47,21.38,24.32,0,110.7,13.31,21.29,61.3
"2010-06-02 00:37:00",164694,6.594,101.9,5.489,0.443,19.52,108.277,20.47,21.39,23.56,0,110.7,13.31,21.29,63.9
"2010-06-02 00:37:30",164695,6.212,110.1,6.85,0.472,19.59,108.2877,20.5,21.4,22.48,0,110.7,13.31,21.32,72.1
"2010-06-02 00:38:00",164696,5.842,105.1,6.099,0.52,19.39,108.3102,20.56,21.41,22.9,0,110.7,13.31,21.38,67.1
"2010-06-02 00:38:30",164697,7.282,94,5.255,0.585,19.25,108.3108,20.56,21.44,24.55,0,110.7,13.31,21.38,56.0
"2010-06-02 00:39:00",164698,7.278,91.3,1.743,0.275,19.15,108.3108,20.56,21.44,25.3,0,110.7,13.31,21.38,53.3
"2010-06-02 00:39:30",164699,7.052,86.7,2.414,0.418,19.18,108.2973,20.52,21.44,25.39,0,110.7,13.31,21.35,48.7
"2010-06-02 00:40:00",164700,6.198,82.8,5.42,0.338,19.17,108.2793,20.48,21.42,25.37,0,110.7,13.32,21.30,44.8
"2010-06-02 00:40:30",164701,5.565,78.64,2.612,0.49,19.26,108.277,20.47,21.4,25.05,0,110.7,13.32,21.29,40.6
"2010-06-02 00:41:00",164702,5.582,83.8,3.849,0.219,19.36,108.277,20.47,21.4,24.41,0,110.7,13.32,21.29,45.8
"2010-06-02 00:41:30",164703,5.254,82.8,3.58,0.274,19.33,108.277,20.47,21.38,24.29,0,110.7,13.32,21.29,44.8
"2010-06-02 00:42:00",164704,6.066,82.3,3.797,0.276,19.25,108.277,20.47,21.38,24.93,0,110.7,13.32,21.29,44.3
"2010-06-02 00:42:30",164705,6.068,78.69,2.38,0.311,19.28,108.277,20.47,21.38,24.79,0,110.7,13.32,21.29,40.7
"2010-06-02 00:43:00",164706,5.395,85.1,3.409,0.22,19.36,108.277,20.47,21.36,23.92,0,110.7,13.32,21.29,47.1
"2010-06-02 00:43:30",164707,5.351,90.4,5.074,0.345,19.3,108.277,20.47,21.37,23.97,0,110.7,13.32,21.29,52.4
"2010-06-02 00:44:00",164708,6.109,81.3,7.496,0.45,19.25,108.277,20.47,21.37,24.64,0,110.7,13.31,21.29,43.3
"2010-06-02 00:44:30",164709,6.253,78.86,2.921,0.482,19.45,108.277,20.47,21.36,23.44,0,110.7,13.31,21.29,40.9
"2010-06-02 00:45:00",164710,6.097,81,5.073,0.307,19.17,108.277,20.47,21.37,24.55,0,110.7,13.31,21.29,43.0
"2010-06-02 00:45:30",164711,4.804,73.97,4.735,0.465,19.36,108.277,20.47,21.37,23.88,0,110.7,13.31,21.29,36.0
"2010-06-02 00:46:00",164712,4.144,83.4,6.934,0.134,19.31,108.277,20.47,21.37,23.51,0,110.7,13.31,21.29,45.4
"2010-06-02 00:46:30",164713,4.471,74.81,4.13,0.194,19.25,108.277,20.47,21.37,23.9,0,110.7,13.31,21.29,36.8
"2010-06-02 00:47:00",164714,5.147,64.92,3.222,0.401,19.16,108.277,20.47,21.38,24.49,0,110.7,13.31,21.29,26.9
"2010-06-02 00:47:30",164715,6.452,86.5,10.68,0.925,18.97,108.2756,20.47,21.36,26.23,0,110.7,13.31,21.29,48.5
"2010-06-02 00:48:00",164716,8.47,78.46,2.921,0.979,18.97,108.2441,20.39,21.33,27.23,0,110.7,13.31,21.21,40.5
"2010-06-02 00:48:30",164717,8.63,79.64,1.22,0.347,19.17,108.2396,20.37,21.31,26.38,0,110.7,13.31,21.20,41.6
"2010-06-02 00:49:00",164718,8.34,78.92,1.779,0.373,18.94,108.2123,20.3,21.28,27.96,0,110.7,13.32,21.13,40.9
"2010-06-02 00:49:30",164719,7.547,77.26,2.006,0.221,18.83,108.1841,20.23,21.25,28.68,0,110.7,13.32,21.05,39.3
"2010-06-02 00:50:00",164720,8.33,75.67,1.824,0.201,18.94,108.1668,20.19,21.22,28.25,0,110.7,13.32,21.01,37.7
"2010-06-02 00:50:30",164721,8.6,80.5,2.683,0.337,19.08,108.1498,20.14,21.17,27.99,0,110.7,13.32,20.97,42.5
"2010-06-02 00:51:00",164722,8.8,79.69,3.738,0.429,19.05,108.1484,20.14,21.12,27.36,0,110.7,13.33,20.96,41.7
"2010-06-02 00:51:30",164723,8.72,74.99,1.647,0.169,18.96,108.1299,20.09,21.1,27.96,0,110.7,13.33,20.92,37.0
"2010-06-02 00:52:00",164724,9,73.33,1.174,0.253,18.98,108.1239,20.08,21.04,27.6,0,110.7,13.33,20.90,35.3
"2010-06-02 00:52:30",164725,9.19,72.79,3.405,0.567,18.89,108.1008,20.02,21.02,27.71,0,110.7,13.33,20.84,34.8
"2010-06-02 00:53:00",164726,9.35,75.27,0.718,0.336,19.07,108.1015,20.02,20.98,25.82,0,110.7,13.33,20.84,37.3
"2010-06-02 00:53:30",164727,9.25,74.36,0.774,0.167,19.07,108.0881,19.99,20.94,24.96,0,110.7,13.33,20.81,36.4
"2010-06-02 00:54:00",164728,9.09,72.27,0.963,0.144,18.92,108.0734,19.95,20.92,26.12,0,110.7,13.33,20.77,34.3
"2010-06-02 00:54:30",164729,9.21,70.33,1.092,0.096,18.93,108.0728,19.95,20.9,26.12,0,110.7,13.33,20.77,32.3
"2010-06-02 00:55:00",164730,9,68.23,0.952,0.191,18.86,108.0568,19.91,20.87,26.5,0,110.7,13.33,20.73,30.2
"2010-06-02 00:55:30",164731,8.58,67.96,0.777,0.101,18.84,108.0414,19.87,20.85,27.38,0,110.7,13.33,20.69,30.0
"2010-06-02 00:56:00",164732,8.66,67.98,0.874,0.098,18.85,108.042,19.87,20.82,26.95,0,110.6,13.33,20.69,30.0
"2010-06-02 00:56:30",164733,8.4,69.85,0.514,0.244,18.82,108.0255,19.83,20.79,27.52,0,110.6,13.33,20.65,31.8
"2010-06-02 00:57:00",164734,8.07,67.22,1.978,0.277,18.81,108.0097,19.78,20.77,28.51,0,110.6,13.34,20.61,29.2
"2010-06-02 00:57:30",164735,8.18,67.07,1.994,0.247,18.81,108.0095,19.78,20.75,28.32,0,110.6,13.34,20.61,29.1
"2010-06-02 00:58:00",164736,9.11,67.16,2.132,0.625,18.87,108.003,19.77,20.72,28.47,0,110.6,13.34,20.59,29.2
"2010-06-02 00:58:30",164737,9.48,66.9,0.908,0.084,18.8,107.9805,19.71,20.69,27.52,0,110.6,13.34,20.53,28.9
"2010-06-02 00:59:00",164738,9.77,66.26,0.562,0.135,18.77,107.9757,19.7,20.68,26.56,0,110.6,13.35,20.52,28.3
"2010-06-02 00:59:30",164739,9.56,66.86,0.761,0.271,18.8,107.9757,19.7,20.65,26.04,0,110.6,13.34,20.52,28.9
"2010-06-02 01:00:00",164740,9.83,66.47,0.661,0.071,18.78,107.974,19.69,20.63,25.58,0,110.6,13.35,20.51,28.5
"2010-06-02 01:00:30",164741,9.62,66.01,0.723,0.197,18.74,107.9551,19.64,20.61,26.57,0,110.6,13.34,20.47,28.0
"2010-06-02 01:01:00",164742,9.32,63.12,1.969,0.199,18.75,107.9421,19.61,20.59,27.89,0,110.6,13.34,20.43,25.1
"2010-06-02 01:01:30",164743,9.27,62.09,0.993,0.158,18.75,107.9419,19.61,20.57,27.79,0,110.6,13.34,20.43,24.1
"2010-06-02 01:02:00",164744,8.87,61.61,1.537,0.224,18.71,107.9416,19.61,20.55,27.21,0,110.6,13.34,20.43,23.6
"2010-06-02 01:02:30",164745,9.22,59.45,2.691,0.315,18.68,107.9213,19.56,20.55,27.59,0,110.6,13.34,20.38,21.5
"2010-06-02 01:03:00",164746,9.13,60.64,2.294,0.228,18.66,107.9081,19.52,20.51,27.76,0,110.6,13.34,20.34,22.6
"2010-06-02 01:03:30",164747,9.29,55.58,2.009,0.248,18.63,107.9075,19.52,20.5,27.9,0,110.6,13.33,20.34,17.6
"2010-06-02 01:04:00",164748,9.25,53.57,3.706,0.43,18.61,107.8824,19.46,20.46,28.32,0,110.6,13.33,20.28,15.6
"2010-06-02 01:04:30",164749,9.12,52.85,4.648,0.26,18.53,107.8743,19.44,20.45,28.11,0,110.6,13.33,20.26,14.8
"2010-06-02 01:05:00",164750,8.98,52.05,3.015,0.365,18.5,107.8695,19.42,20.41,28.28,0,110.6,13.33,20.24,14.0
"2010-06-02 01:05:30",164751,8.86,59.15,1.716,0.538,18.49,107.8413,19.35,20.38,28.23,0,110.6,13.34,20.17,21.2
"2010-06-02 01:06:00",164752,9.81,59.63,2.507,0.367,18.52,107.8405,19.35,20.34,27.97,0,110.6,13.34,20.17,21.6
"2010-06-02 01:06:30",164753,10.52,59.44,1.64,0.177,18.53,107.8143,19.28,20.32,27.1,0,110.6,13.35,20.10,21.4
"2010-06-02 01:07:00",164754,10.24,60.4,0.951,0.174,18.52,107.8079,19.27,20.3,26.62,0,110.6,13.35,20.09,22.4
"2010-06-02 01:07:30",164755,10.18,60.05,0.855,0.09,18.54,107.8071,19.26,20.27,26.72,0,110.6,13.35,20.08,22.0
"2010-06-02 01:08:00",164756,10.24,59.17,0.703,0.08,18.48,107.7896,19.22,20.24,26.42,0,110.6,13.35,20.04,21.2
"2010-06-02 01:08:30",164757,10.35,58.43,0.71,0.11,18.52,107.7813,19.2,20.21,26,0,110.6,13.35,20.02,20.4
"2010-06-02 01:09:00",164758,10.09,55.85,0.718,0.191,18.52,107.7866,19.21,20.2,26.08,0,110.6,13.35,20.03,17.8
"2010-06-02 01:09:30",164759,10.29,57.84,0.333,0.15,18.52,107.7917,19.23,20.18,25.77,0,110.6,13.35,20.04,19.8
"2010-06-02 01:10:00",164760,10.23,56.64,0.459,0.063,18.57,107.7849,19.21,20.16,26.11,0,110.6,13.35,20.03,18.6
"2010-06-02 01:10:30",164761,10.44,55.75,0.233,0.098,18.42,107.77,19.17,20.14,26.19,0,110.6,13.35,19.99,17.8
"2010-06-02 01:11:00",164762,10.34,55.58,0.376,0.068,18.34,107.7675,19.16,20.14,26.51,0,110.6,13.35,19.98,17.6
"2010-06-02 01:11:30",164763,10.42,55.85,0.566,0.088,18.37,107.767,19.16,20.11,26.61,0,110.6,13.35,19.98,17.8
"2010-06-02 01:12:00",164764,10.53,57.17,0.639,0.155,18.45,107.7667,19.16,20.1,26.73,0,110.6,13.35,19.98,19.2
"2010-06-02 01:12:30",164765,10.84,57.47,0.625,0.163,18.39,107.7689,19.17,20.09,26.34,0,110.6,13.35,19.99,19.5
"2010-06-02 01:13:00",164766,10.8,57.51,0.547,0.197,18.39,107.7614,19.15,20.06,26.13,0,110.6,13.35,19.97,19.5
"2010-06-02 01:13:30",164767,11.26,57.51,0.612,0.158,18.4,107.747,19.11,20.06,25.91,0,110.6,13.35,19.93,19.5
"2010-06-02 01:14:00",164768,11.29,58.15,0.572,0.079,18.34,107.7377,19.09,20.05,26.12,0,110.6,13.35,19.91,20.2
"2010-06-02 01:14:30",164769,11.4,58.26,0.527,0.075,18.3,107.7399,19.09,20.03,25.99,0,110.6,13.35,19.91,20.3
"2010-06-02 01:15:00",164770,12.01,58.05,0.449,0.274,18.31,107.7387,19.09,20.01,25.97,0,110.6,13.35,19.91,20.0
"2010-06-02 01:15:30",164771,12.05,57.87,0.724,0.09,18.32,107.7411,19.1,19.98,25.51,0,110.6,13.35,19.91,19.9
"2010-06-02 01:16:00",164772,12.07,56.59,0.362,0.061,18.25,107.7332,19.08,19.98,25.27,0,110.6,13.35,19.89,18.6
"2010-06-02 01:16:30",164773,11.82,56.4,0.815,0.307,18.23,107.7121,19.02,19.98,25.75,0,110.6,13.35,19.84,18.4
"2010-06-02 01:17:00",164774,10.71,50.41,3.972,0.341,18.2,107.7079,19.01,19.96,26.94,0,110.6,13.35,19.83,12.4
"2010-06-02 01:17:30",164775,9.91,47.05,2.191,0.41,18.17,107.7076,19.01,19.95,27.42,0,110.6,13.35,19.83,9.0
"2010-06-02 01:18:00",164776,8.94,47.03,2.095,0.378,18.17,107.7079,19.01,19.92,27.62,0,110.6,13.35,19.83,9.0
"2010-06-02 01:18:30",164777,8.75,52.86,2.059,0.309,18.19,107.6916,18.97,19.92,27.89,0,110.6,13.35,19.79,14.9
"2010-06-02 01:19:00",164778,10.07,52.68,1.639,0.465,18.22,107.6741,18.92,19.9,27.52,0,110.6,13.35,19.74,14.7
"2010-06-02 01:19:30",164779,9.82,54.38,2.585,0.299,18.23,107.6741,18.92,19.87,27.55,0,110.6,13.35,19.74,16.4
"2010-06-02 01:20:00",164780,9.61,54.76,0.969,0.289,18.28,107.6561,18.88,19.85,27.42,0,110.6,13.35,19.70,16.8
"2010-06-02 01:20:30",164781,9.74,54.53,0.905,0.251,18.29,107.6409,18.84,19.82,27.2,0,110.6,13.35,19.66,16.5
"2010-06-02 01:21:00",164782,9.9,55.34,1.536,0.175,18.24,107.6403,18.84,19.8,27.23,0,110.6,13.35,19.65,17.3
"2010-06-02 01:21:30",164783,10.14,55.46,0.848,0.342,18.19,107.6403,18.84,19.79,27.43,0,110.6,13.35,19.65,17.5
"2010-06-02 01:22:00",164784,10.08,57.28,1.149,0.205,18.24,107.6366,18.83,19.78,27.12,0,110.6,13.35,19.65,19.3
"2010-06-02 01:22:30",164785,10.27,57.78,1.059,0.217,18.26,107.6175,18.78,19.76,26.95,0,110.6,13.35,19.60,19.8
"2010-06-02 01:23:00",164786,10.79,59.06,0.479,0.094,18.26,107.6076,18.75,19.74,26.42,0,110.6,13.36,19.57,21.1
"2010-06-02 01:23:30",164787,10.82,59.53,0.586,0.086,18.24,107.6065,18.75,19.73,26.56,0,110.6,13.36,19.57,21.5
"2010-06-02 01:24:00",164788,10.96,60.84,0.656,0.117,18.28,107.6065,18.75,19.71,26.3,0,110.6,13.36,19.57,22.8
"2010-06-02 01:24:30",164789,11.11,60.45,0.489,0.141,18.33,107.6065,18.75,19.71,25.87,0,110.6,13.37,19.57,22.5
"2010-06-02 01:25:00",164790,11.37,60.74,0.447,0.077,18.32,107.6065,18.75,19.69,25.07,0,110.6,13.37,19.57,22.7
"2010-06-02 01:25:30",164791,11.42,60.53,0.501,0.173,18.21,107.6065,18.75,19.69,25.4,0,110.6,13.37,19.57,22.5
"2010-06-02 01:26:00",164792,11.42,59.99,0.04,0.128,18.28,107.6065,18.75,19.69,25.81,0,110.6,13.37,19.57,22.0
"2010-06-02 01:26:30",164793,11.96,60.06,0.459,0.158,18.35,107.6065,18.75,19.68,24.83,0,110.6,13.37,19.57,22.1
"2010-06-02 01:27:00",164794,12.16,59.24,0.488,0.071,18.26,107.6065,18.75,19.69,24.26,0,110.6,13.37,19.57,21.2
"2010-06-02 01:27:30",164795,12.31,59.53,0.527,0.069,18.21,107.6065,18.75,19.68,24.05,0,110.6,13.37,19.57,21.5
"2010-06-02 01:28:00",164796,12.24,60.48,0.494,0.078,18.26,107.6068,18.75,19.68,24.06,0,110.6,13.37,19.57,22.5
"2010-06-02 01:28:30",164797,12.21,60.32,0.483,0.07,18.23,107.6099,18.76,19.68,23.98,0,110.6,13.37,19.58,22.3
"2010-06-02 01:29:00",164798,12.37,61.55,0.545,0.111,18.39,107.6121,18.76,19.68,23.86,0,110.6,13.37,19.58,23.5
"2010-06-02 01:29:30",164799,12.42,62.05,0.34,0.084,18.41,107.6234,18.79,19.69,23.81,0,110.6,13.37,19.61,24.0
"2010-06-02 01:30:00",164800,12.27,62.77,0.668,0.066,18.46,107.6389,18.83,19.68,23.8,0,110.6,13.37,19.65,24.8
"2010-06-02 01:30:30",164801,12.21,63.54,0.471,0.097,18.45,107.6403,18.84,19.7,23.75,0,110.6,13.37,19.65,25.5
"2010-06-02 01:31:00",164802,12.35,63.58,0.451,0.05,18.44,107.6403,18.84,19.71,23.84,0,110.6,13.37,19.65,25.6
"2010-06-02 01:31:30",164803,12.28,64.04,0.427,0.04,18.49,107.6403,18.84,19.72,23.86,0,110.6,13.37,19.65,26.0
"2010-06-02 01:32:00",164804,12.28,64.4,0.532,0.137,18.44,107.6403,18.84,19.73,23.87,0,110.6,13.37,19.65,26.4
"2010-06-02 01:32:30",164805,12.05,63.83,0.031,0.069,18.41,107.642,18.84,19.73,23.86,0,110.6,13.37,19.66,25.8
"2010-06-02 01:33:00",164806,11.72,62.71,0.748,0.136,18.42,107.6482,18.86,19.74,23.84,0,110.6,13.37,19.68,24.7
"2010-06-02 01:33:30",164807,11.69,64.41,1.544,0.327,18.67,107.6606,18.89,19.75,23.69,0,110.6,13.37,19.71,26.4
"2010-06-02 01:34:00",164808,11.81,64.83,1.791,0.582,18.86,107.6741,18.92,19.76,23.4,0,110.6,13.37,19.74,26.8
"2010-06-02 01:34:30",164809,11.69,65.29,3.968,0.841,19.14,107.6873,18.96,19.8,23,0,110.6,13.36,19.78,27.3
"2010-06-02 01:35:00",164810,11.3,62.71,2.656,0.372,18.63,107.722,19.05,19.85,22.93,0,110.6,13.36,19.87,24.7
"2010-06-02 01:35:30",164811,10.85,62.66,1.025,0.137,18.36,107.7417,19.1,19.9,23.14,0,110.6,13.35,19.92,24.7
"2010-06-02 01:36:00",164812,11.04,64.72,0.85,0.182,18.34,107.7417,19.1,19.9,23.38,0,110.6,13.35,19.92,26.7
"2010-06-02 01:36:30",164813,10.8,64.61,0.505,0.188,18.36,107.7417,19.1,19.93,23.35,0,110.6,13.35,19.92,26.6
"2010-06-02 01:37:00",164814,11.17,64.14,1.441,0.356,18.38,107.7406,19.09,19.93,23.27,0,110.6,13.35,19.91,26.1
"2010-06-02 01:37:30",164815,11.47,64.33,0.94,0.078,18.38,107.7318,19.07,19.93,23.26,0,110.6,13.35,19.89,26.3
"2010-06-02 01:38:00",164816,11.72,63.2,0.584,0.164,18.42,107.7133,19.02,19.91,23.23,0,110.6,13.35,19.84,25.2
"2010-06-02 01:38:30",164817,11.56,63.34,1.055,0.201,18.58,107.7096,19.01,19.91,23.19,0,110.6,13.35,19.83,25.3
"2010-06-02 01:39:00",164818,11.02,63.11,0.565,0.153,18.42,107.7087,19.01,19.92,23.17,0,110.6,13.35,19.83,25.1
"2010-06-02 01:39:30",164819,11.15,62.72,0.6,0.056,18.35,107.7082,19.01,19.92,23.17,0,110.6,13.35,19.83,24.7
"2010-06-02 01:40:00",164820,11,62.12,0.532,0.177,18.48,107.7079,19.01,19.92,23.09,0,110.6,13.36,19.83,24.1
"2010-06-02 01:40:30",164821,10.85,61.64,0.568,0.055,18.42,107.7079,19.01,19.9,23.24,0,110.6,13.36,19.83,23.6
"2010-06-02 01:41:00",164822,10.86,61.87,0.52,0.11,18.39,107.7079,19.01,19.91,23.35,0,110.6,13.36,19.83,23.9
"2010-06-02 01:41:30",164823,11.05,61.64,0.781,0.13,18.42,107.7079,19.01,19.9,23.27,0,110.6,13.36,19.83,23.6
"2010-06-02 01:42:00",164824,10.81,58.62,1.741,0.271,18.53,107.7079,19.01,19.9,23.14,0,110.6,13.36,19.83,20.6
"2010-06-02 01:42:30",164825,10.74,59.78,0.731,0.173,18.43,107.7079,19.01,19.92,23.11,0,110.6,13.36,19.83,21.8
"2010-06-02 01:43:00",164826,10.68,58.53,0.648,0.194,18.46,107.7079,19.01,19.9,23.11,0,110.6,13.36,19.83,20.5
"2010-06-02 01:43:30",164827,10.84,56.8,0.914,0.138,18.38,107.7079,19.01,19.9,23.31,0,110.6,13.36,19.83,18.8
"2010-06-02 01:44:00",164828,10.78,53.98,1.068,0.114,18.34,107.7079,19.01,19.9,23.44,0,110.6,13.36,19.83,16.0
"2010-06-02 01:44:30",164829,11.18,51.87,0.948,0.091,18.33,107.7079,19.01,19.9,23.66,0,110.6,13.36,19.83,13.9
"2010-06-02 01:45:00",164830,10.78,49.57,1.343,0.274,18.19,107.7079,19.01,19.91,24.19,0,110.6,13.36,19.83,11.6
"2010-06-02 01:45:30",164831,9.75,48.04,1.59,0.377,18.08,107.7057,19,19.9,25.1,0,110.6,13.36,19.82,10.0
"2010-06-02 01:46:00",164832,9.88,47.08,1.477,0.353,18.07,107.6933,18.97,19.9,25.34,0,110.6,13.37,19.79,9.1
"2010-06-02 01:46:30",164833,9.62,43.34,1.591,0.307,17.99,107.6741,18.92,19.87,25.83,0,110.6,13.37,19.74,5.3
"2010-06-02 01:47:00",164834,9.45,43.02,3.909,0.667,17.98,107.6656,18.9,19.84,25.91,0,110.6,13.37,19.72,5.0
"2010-06-02 01:47:30",164835,10.02,43.54,1.512,0.309,18.13,107.6406,18.84,19.81,25.55,0,110.6,13.37,19.66,5.5
"2010-06-02 01:48:00",164836,10.58,46.74,1.519,0.345,18.24,107.6403,18.84,19.79,25.19,0,110.6,13.37,19.65,8.7
"2010-06-02 01:48:30",164837,10.46,45.24,1.743,0.209,18.16,107.64,18.84,19.77,25.12,0,110.6,13.37,19.65,7.2
"2010-06-02 01:49:00",164838,9.68,42.39,1.555,0.426,17.94,107.6192,18.78,19.77,26.28,0,110.6,13.37,19.60,4.4